Regional Weather Roundup
Issued by NWS

Home | Current Version | Previous Version | Graphics & Text | Print | Product List | Glossary On
Versions: 1 2 3 4 5 6 7 8 9 10 11 12 13 14 15 16 17 18 19 20 21 22 23 24 25 26 27 28 29 30 31 32 33 34 35 36 37 38 39 40 41 42 43 44 45 46 47 48 49 50
318
ASUS44 KJAN 270603
RWRMS

MISSISSIPPI HOURLY WEATHER ROUNDUP
NATIONAL WEATHER SERVICE JACKSON MS
1200 AM CST THU NOV 27 2014

NOTE: "FAIR: INDICATES FEW OR NO CLOUDS BELOW 12,000 FEET WITH NO
SIGNIFICANT WEATHER AND/OR OBSTRUCTIONS TO VISIBILITY.

MSZ001>002-007>008-010>013-018>021-025>028-034>036-270700-
NORTHWEST MISSISSIPPI

CITY           SKY/WX    TMP DP  RH WIND       PRES   REMARKS
CLARKSDALE     FAIR      39  32  75 W6        30.25R WCI  35
CLEVELAND      FAIR      42  35  76 NW7       30.25R
GREENWOOD      CLEAR     35  31  85 CALM      30.23R
6HR MIN TEMP:  34; 6HR MAX TEMP:  54;

GREENVILLE     CLEAR     46  32  58 NW10      30.25R
6HR MIN TEMP:  44; 6HR MAX TEMP:  51;

GRENADA        FAIR      32  32 100 CALM      30.24R
OLIVE BRANCH   CLEAR     41  32  70 NW14G22   30.20R
OXFORD         FAIR      32  30  93 W3        30.22R
TUNICA         CLEAR     39  32  75 NW13      30.25R WCI  32
$$

MSZ003>006-009-014>017-022>024-029>033-037>039-270700-
NORTHEAST MISSISSIPPI

CITY           SKY/WX    TMP DP  RH WIND       PRES   REMARKS
COLUMBUS AFB   CLEAR     35  29  81 CALM      30.20R
6HR MIN TEMP:  35; 6HR MAX TEMP:  57;

CORINTH          N/A     34  32  93 CALM      30.16S
GOLDN TRIANGLE CLEAR     37  28  70 CALM      30.20R
STARKVILLE       N/A     34  32  93 CALM      30.21R
TUPELO         CLEAR     40  33  76 W5        30.19R
6HR MIN TEMP:  39; 6HR MAX TEMP:  53;

$$

MSZ040-058-270700-
CENTRAL MISSISSIPPI

CITY           SKY/WX    TMP DP  RH WIND       PRES   REMARKS
JACKSON INTL   CLEAR     51  29  42 NW7       30.25R
6HR MIN TEMP:  48; 6HR MAX TEMP:  61;

JACKSON HAWKNS CLEAR     47  30  51 W5        30.25R
6HR MIN TEMP:  47; 6HR MAX TEMP:  61;

MERIDIAN KEY   CLEAR     38  33  82 CALM      30.22S
6HR MIN TEMP:  38; 6HR MAX TEMP:  54;

MERIDIAN NAS   CLEAR     43  32  65 W5        30.22R
6HR MIN TEMP:  42; 6HR MAX TEMP:  57;

RAYMOND        FAIR      46  43  87 NW5       30.26R
VICKSBURG      CLEAR     44  34  67 W3        30.28R
6HR MIN TEMP:  42; 6HR MAX TEMP:  56;

$$

MSZ059>079-270700-
SOUTH MISSISSIPPI

CITY           SKY/WX    TMP DP  RH WIND       PRES   REMARKS
BROOKHAVEN     FAIR      45  37  76 CALM      30.27S
HATTIESBURG    CLEAR     45  40  82 CALM      30.24S
6HR MIN TEMP:  45; 6HR MAX TEMP:  55;

MCCOMB         CLEAR     49  39  68 NW5       30.25S
6HR MIN TEMP:  49; 6HR MAX TEMP:  59;

NATCHEZ        CLEAR     45  36  70 CALM      30.29R
6HR MIN TEMP:  45; 6HR MAX TEMP:  59;

PINE BELT      CLEAR     46  37  71 W3        30.25R
6HR MIN TEMP:  45; 6HR MAX TEMP:  57;

$$

MSZ080>082-270700-
COASTAL MISSISSIPPI

CITY           SKY/WX    TMP DP  RH WIND       PRES   REMARKS
BILOXI         CLEAR     56  46  70 W5        30.24R
6HR MIN TEMP:  56; 6HR MAX TEMP:  58;

PASCAGOULA     CLEAR     54  46  74 W5        30.23S
6HR MIN TEMP:  53; 6HR MAX TEMP:  58;

GULFPORT       CLEAR     54  45  71 W6        30.24R
6HR MIN TEMP:  54; 6HR MAX TEMP:  58;

$$



USA.gov is the U.S. government's official web portal to all federal, state and local government web resources and services.